星链-3875 (STARLINK-3875 )

导读

STARLINK-3875是美国SpaceX公司星链(Starlink)星座中的一员,于2022年5月6日发射入轨。星链项目旨在构建全球覆盖的低轨卫星互联网,该卫星属于量产型通信卫星,采用平板设计,搭载Ku/Ka波段通信载荷,配备氪工质霍尔推进器,具备自主避撞能力,设计寿命约5-7年,退役后会主动离轨坠入大气层烧毁。

Basic Information
目录编号:
52483
目录名称:
STARLINK-3875
国际标识:
2022-049AJ
轨道中心:
EARTH
卫星名称:
星链-3875
卫星全名:
星链-3875 (STARLINK-3875 )
卫星状态:
在轨 (已飞行1503 天)
发射日期:
2022-05-06 UTC
国别 :
美国 (US)
星等 :
--
Orbit Information
数据来源 国际轨道数据 AOE轨道数据
星历时间 2026-06-17T11:27:04+0800
13小时前
查看轨道信息
2026-06-15T02:00:00+0800
2天前
查看轨道信息
半长轴 6917.9km 6917.91km
偏心率 0.0001489 0.0001351
轨道倾角 53.161° 53.161°
近地点辐角 92.188° 75.663°
升交点赤经 322.557° 333.318°
平近点角 267.928° 234.719°
近地点 538.732km 538.838km
远地点 540.794km 540.708km
周期 95.438分钟 95.438分钟
每日圈数 15.088336 15.088306
Detailed Information
固有亮度:
5
最大亮度:
2.5
卫星平台:
Starlink v1.5
覆盖范围:
全球
运营商:
太空探索技术公司
运营商所在国:
美国
制造商(研发单位):
太空探索技术公司
制造商所在国:
美国
使用方式:
暂无
Satellite Introduction
星链(Starlink)计划是由太空探索技术公司(SpaceX)提出的一个巨型低轨卫星互联网星座项目,计划在2019年至2024年间在太空搭建由约1.2万颗卫星组成的“星链”网络,其中1584颗将部署在地球上空550千米处的近地轨道,并从2020年开始工作。该卫星仍在工作。
2D Orbit Map
3D Orbit Map
Orbit Altitude Analysis Chart
Orbit Inclination Analysis Chart
Orbit Comprehensive Analysis Chart
View Comprehensive Chart